Hourly Data Report for June 13, 2013

KAMLOOPS A
BRITISH COLUMBIA

50°42'09.000" N
120°26'55.000" W
345.30 m
1163781
71887
YKA

Download Data

Hourly Data (June 2013)
Hourly Data Report for June 13, 2013
TIME
LST
Temp Definition
°C
Dew Point Definition
°C
Rel Hum Definition
%
Precip. Amount Definition
mm

Wind Dir Definition
10's deg

Wind Spd Definition
km/h
Visibility Definition
km
Stn Press Definition
kPa
Hmdx Definition


Wind Chill Definition


Weather Definition


00:00 12.0 4.3 59   24 12 64.4 97.58     LegendNANA
01:00 11.6 3.4 57   33 3 64.4 97.58     Mainly Clear
02:00 10.4 3.0 60   10 2 64.4 97.62     LegendNANA
03:00 10.1 3.4 63   3 1 64.4 97.65     LegendNANA
04:00 8.4 3.3 70   24 2 64.4 97.67     Mainly Clear
05:00 10.2 3.5 63   9 7 64.4 97.70     LegendNANA
06:00
07:00 13.1 3.8 53   11 9 64.4 97.70     Mainly Clear
08:00 15.2 4.4 48   23 3 64.4 97.67     LegendNANA
09:00 17.5 5.2 44   19 6 64.4 97.60     LegendNANA
10:00 19.5 4.6 37   28 8 64.4 97.53     Mainly Clear
11:00 21.5 4.3 32   22 8 64.4 97.47     LegendNANA
12:00 20.8 3.2 31   2 13 64.4 97.43     LegendNANA
13:00 22.1 3.9 30   26 11 64.4 97.42     Mostly Cloudy
14:00 22.5 3.8 29   26 20 64.4 97.45     LegendNANA
15:00 22.3 2.6 27   27 9 64.4 97.43     LegendNANA
16:00 21.1 6.0 37   10 23 64.4 97.43     Mostly Cloudy
17:00 19.2 5.8 41   11 24 64.4 97.44     LegendNANA
18:00 15.3 8.1 62   28 22 64.4 97.58     Rain Showers
19:00 15.3 9.1 66   20 7 64.4 97.57     Mostly Cloudy
20:00 14.4 9.9 74   7 12 64.4 97.63     Rain Showers
21:00 13.6 11.0 84   11 8 64.4 97.71     Rain Showers
22:00 12.8 10.5 86   6 7 64.4 97.72     Rain Showers
23:00 12.6 11.0 90   9 4 64.4 97.70     Rain Showers

Notes on Data Quality.

Legend

  • E = Estimated
  • M = Missing
  • NA = Not Available*
  • [empty] = Indicates an unobserved value
Date modified: